Time,TemperatureF,DewpointF,PressureIn,WindDirection,WindDirectionDegrees,WindSpeedMPH,WindSpeedGustMPH,Humidity,HourlyPrecipIn,Conditions,Clouds,dailyrainin,SoftwareType,DateUTC
2013-06-13 00:05:00,76.0,15.5,29.66,North,0,0.0,0.0,1,0.00,,,0.00,WUHU216HW,2013-06-13 04:05:00,
2013-06-13 00:35:00,75.2,14.9,29.66,North,0,0.0,0.0,1,0.00,,,0.00,WUHU216HW,2013-06-13 04:35:00,
2013-06-13 01:05:00,74.9,14.7,29.64,North,0,0.0,0.0,1,0.00,,,0.00,WUHU216HW,2013-06-13 05:05:00,
2013-06-13 01:35:00,74.2,14.2,29.64,North,0,0.0,0.0,1,0.00,,,0.00,WUHU216HW,2013-06-13 05:35:00,
2013-06-13 02:05:00,73.8,14.0,29.63,North,0,0.0,0.0,1,0.00,,,0.00,WUHU216HW,2013-06-13 06:05:00,
2013-06-13 02:35:00,73.3,13.5,29.63,North,0,0.0,0.0,1,0.00,,,0.00,WUHU216HW,2013-06-13 06:35:00,
2013-06-13 03:05:00,73.1,13.4,29.62,North,0,0.0,0.0,1,0.00,,,0.00,WUHU216HW,2013-06-13 07:05:00,
2013-06-13 03:30:00,73.1,13.4,29.62,North,0,0.0,0.0,1,0.00,,,0.00,WUHU216HW,2013-06-13 07:30:00,
2013-06-13 03:35:00,73.1,13.4,29.62,North,0,0.0,0.0,1,0.00,,,0.00,WUHU216HW,2013-06-13 07:35:00,
2013-06-13 04:05:00,73.1,13.4,29.62,North,0,0.0,0.0,1,0.00,,,0.00,WUHU216HW,2013-06-13 08:05:00,
2013-06-13 04:35:00,73.1,13.4,29.61,North,0,0.0,0.0,1,0.00,,,0.00,WUHU216HW,2013-06-13 08:35:00,
2013-06-13 05:04:00,73.1,13.4,29.61,North,0,0.0,0.0,1,0.00,,,0.00,WUHU216HW,2013-06-13 09:04:00,
2013-06-13 05:35:00,72.9,13.2,29.61,North,0,0.0,0.0,1,0.00,,,0.00,WUHU216HW,2013-06-13 09:35:00,
2013-06-13 06:04:00,72.7,13.2,29.61,North,0,0.0,0.0,1,0.00,,,0.00,WUHU216HW,2013-06-13 10:04:00,
2013-06-13 06:35:00,72.7,13.2,29.62,North,0,0.0,0.0,1,0.00,,,0.00,WUHU216HW,2013-06-13 10:35:00,
2013-06-13 07:04:00,72.5,13.0,29.63,North,0,0.0,0.0,1,0.00,,,0.00,WUHU216HW,2013-06-13 11:04:00,
2013-06-13 07:34:00,73.4,13.7,29.64,North,0,0.0,0.0,1,0.00,,,0.00,WUHU216HW,2013-06-13 11:34:00,
2013-06-13 08:05:00,75.2,14.9,29.65,North,0,0.0,0.0,1,0.00,,,0.00,WUHU216HW,2013-06-13 12:05:00,
2013-06-13 08:34:00,78.5,17.4,29.66,North,0,0.0,0.0,1,0.00,,,0.00,WUHU216HW,2013-06-13 12:34:00,
2013-06-13 09:04:00,77.9,17.0,29.66,North,0,0.0,0.0,1,0.00,,,0.00,WUHU216HW,2013-06-13 13:04:00,
2013-06-13 09:34:00,83.0,20.9,29.66,North,0,0.0,0.0,1,0.00,,,0.00,WUHU216HW,2013-06-13 13:34:00,
2013-06-13 10:05:00,88.7,25.3,29.66,North,0,0.0,0.0,1,0.00,,,0.00,WUHU216HW,2013-06-13 14:05:00,
2013-06-13 10:35:00,89.6,25.9,29.66,North,0,0.0,0.0,1,0.00,,,0.00,WUHU216HW,2013-06-13 14:35:00,
2013-06-13 11:05:00,88.9,25.4,29.65,North,0,0.0,0.0,1,0.00,,,0.00,WUHU216HW,2013-06-13 15:05:00,
2013-06-13 11:35:00,89.3,25.7,29.65,North,0,0.0,0.0,1,0.00,,,0.00,WUHU216HW,2013-06-13 15:35:00,
2013-06-13 12:04:00,90.0,26.2,29.64,North,0,0.0,0.0,1,0.00,,,0.00,WUHU216HW,2013-06-13 16:04:00,
2013-06-13 12:34:00,91.3,27.2,29.64,North,0,0.0,0.0,1,0.00,,,0.00,WUHU216HW,2013-06-13 16:34:00,
2013-06-13 13:04:00,91.8,27.6,29.62,North,0,0.0,0.0,1,0.00,,,0.00,WUHU216HW,2013-06-13 17:04:00,
2013-06-13 13:34:00,92.9,28.4,29.62,North,0,0.0,0.0,1,0.00,,,0.00,WUHU216HW,2013-06-13 17:34:00,
2013-06-13 14:04:00,93.1,28.5,29.61,North,0,0.0,0.0,1,0.00,,,0.00,WUHU216HW,2013-06-13 18:04:00,
2013-06-13 14:34:00,93.8,29.1,29.59,North,0,0.0,0.0,1,0.00,,,0.00,WUHU216HW,2013-06-13 18:34:00,
2013-06-13 15:04:00,94.3,29.5,29.57,North,0,0.0,0.0,1,0.00,,,0.00,WUHU216HW,2013-06-13 19:04:00,
2013-06-13 15:34:00,94.7,29.8,29.55,North,0,0.0,0.0,1,0.00,,,0.00,WUHU216HW,2013-06-13 19:34:00,
2013-06-13 16:04:00,94.0,29.2,29.55,North,0,0.0,0.0,1,0.00,,,0.00,WUHU216HW,2013-06-13 20:04:00,
2013-06-13 16:35:00,93.6,28.9,29.54,North,0,0.0,0.0,1,0.00,,,0.00,WUHU216HW,2013-06-13 20:35:00,
2013-06-13 17:04:00,94.0,29.2,29.54,North,0,0.0,0.0,1,0.00,,,0.00,WUHU216HW,2013-06-13 21:04:00,
2013-06-13 17:34:00,94.1,29.3,29.54,North,0,0.0,0.0,1,0.00,,,0.00,WUHU216HW,2013-06-13 21:34:00,
2013-06-13 18:04:00,94.3,29.5,29.53,North,0,0.0,0.0,1,0.00,,,0.00,WUHU216HW,2013-06-13 22:04:00,
2013-06-13 18:34:00,93.6,28.9,29.51,North,0,0.0,0.0,1,0.00,,,0.00,WUHU216HW,2013-06-13 22:34:00,
2013-06-13 19:04:00,92.7,28.3,29.51,North,0,0.0,0.0,2,0.00,,,0.00,WUHU216HW,2013-06-13 23:04:00,
2013-06-13 19:35:00,90.5,26.6,29.52,North,0,0.0,0.0,1,0.00,,,0.00,WUHU216HW,2013-06-13 23:35:00,
2013-06-13 20:04:00,88.2,24.9,29.53,North,0,0.0,0.0,1,0.00,,,0.00,WUHU216HW,2013-06-14 00:04:00,
2013-06-13 20:35:00,86.2,23.4,29.53,North,0,0.0,0.0,1,0.00,,,0.00,WUHU216HW,2013-06-14 00:35:00,
2013-06-13 21:04:00,85.0,22.3,29.54,North,0,0.0,0.0,1,0.00,,,0.00,WUHU216HW,2013-06-14 01:04:00,
2013-06-13 21:34:00,83.2,21.1,29.54,North,0,0.0,0.0,1,0.00,,,0.00,WUHU216HW,2013-06-14 01:34:00,
2013-06-13 22:04:00,81.4,19.6,29.54,North,0,0.0,0.0,1,0.00,,,0.00,WUHU216HW,2013-06-14 02:04:00,
2013-06-13 22:34:00,78.8,17.6,29.55,North,0,0.0,0.0,1,0.00,,,0.00,WUHU216HW,2013-06-14 02:34:00,
2013-06-13 23:05:00,77.4,16.7,29.56,North,0,0.0,0.0,1,0.00,,,0.00,WUHU216HW,2013-06-14 03:05:00,
2013-06-13 23:34:00,77.8,16.9,29.56,North,0,0.0,0.0,1,0.00,,,0.00,WUHU216HW,2013-06-14 03:34:00,